This demonstration page uses our WeatherBlox Daily Observations layout. Learn more.

Left ArrowRight Arrow

41.86663, -103.66717

Hourly Observations for July 24, 2021

Temp ( °F °C ) Dew Point ( °F °C ) Humidity (%) Winds ( mph kmh ) Pressure ( in mb ) Visibility ( mi km ) Precip ( " mm )
12:53 am 00:53 Clear 67 19.4 59 15 76 76 N 5 7 29.95 1014 10 16 0.00 0.00
1:53 am 01:53 Clear 65 18.3 59 15 81 81 W 6 9 29.94 1014 10 16 0.00 0.00
2:53 am 02:53 Clear 63 17.2 58 14.4 84 84 WNW 6 9 29.96 1014 10 16 0.00 0.00
3:53 am 03:53 Clear 62 16.7 57 13.9 84 84 NNW 8 13 29.96 1015 10 16 0.00 0.00
4:53 am 04:53 Clear 62 16.7 56 13.3 80 80 NW 8 13 29.98 1015 10 16 0.00 0.00
5:53 am 05:53 Sunny 61 16.1 56 13.3 84 84 NW 3 6 29.99 1016 10 16 0.00 0.00
6:53 am 06:53 Sunny 63 17.2 56 13.3 78 78 NW 8 13 30.02 1017 10 16 0.00 0.00
7:53 am 07:53 Sunny 66 18.9 57 13.9 73 73 NW 9 15 30.04 1017 10 16 0.00 0.00
8:53 am 08:53 Sunny 72 22.2 56 13.3 57 57 WNW 9 15 30.05 1018 10 16 0.00 0.00
9:53 am 09:53 Sunny 78 25.6 59 15 52 52 W 5 7 30.04 1017 10 16 0.00 0.00
10:53 am 10:53 Sunny 83 28.3 59 15 44 44 Calm 30.04 1017 10 16 0.00 0.00
11:53 am 11:53 Sunny 88 31.1 57 13.9 35 35 VRB 7 11 30.04 1017 10 16 0.00 0.00
12:53 pm 12:53 Sunny 91 32.8 49 9.4 24 24 SE 9 15 30.03 1017 10 16 0.00 0.00
1:53 pm 13:53 Sunny 94 34.4 47 8.3 20 20 ESE 12 19 30.01 1016 10 16 0.00 0.00
2:53 pm 14:53 Sunny 94 34.4 44 6.7 18 18 E 9 15 30.00 1016 10 16 0.00 0.00
3:53 pm 15:53 Sunny 93 33.9 45 7.2 19 19 SE 10 17 29.99 1016 10 16 0.00 0.00
4:53 pm 16:53 Sunny 94 34.4 48 8.9 21 21 ESE 10 17 29.98 1015 10 16 0.00 0.00
5:53 pm 17:53 Sunny 91 32.8 44 6.7 20 20 SE 10 17 29.98 1015 10 16 0.00 0.00
6:53 pm 18:53 Sunny 86 30 53 11.7 32 32 ESE 8 13 29.98 1015 10 16 0.00 0.00
7:53 pm 19:53 Sunny 81 27.2 56 13.3 42 42 ESE 7 11 29.98 1015 10 16 0.00 0.00
8:53 pm 20:53 Clear 76 24.4 55 12.8 48 48 E 8 13 29.99 1016 10 16 0.00 0.00
9:53 pm 21:53 Clear 73 22.8 56 13.3 55 55 ESE 7 11 30.00 1016 10 16 0.00 0.00
10:53 pm 22:53 Clear 71 21.7 53 11.7 53 53 ESE 6 9 30.00 1016 10 16 0.00 0.00
11:53 pm 23:53 Clear 68 20 53 11.7 59 59 E 6 9 30.00 1016 10 16 0.00 0.00

Powered by AerisWeather